Find Kosmos-2549

NORAD ID: 47546 Int'l Des: 2021-008 Owner: VVKOV Country: RU operational
LEOCIRCULAR

Live Position

Loading 3D Globe...

About Kosmos-2549

Description loading...

Upcoming Passes

Passes for default location (London). Set your location on the main map for personalized predictions.

Altitude History

Loading altitude history...

Two-Line Element Set

1 47546U 21008A 26110.61534235 -.00000058 00000-0 12689-4 0 9990
2 47546 67.1475 125.0708 0006082 262.9751 97.0642 13.97016751265796
Epoch: Apr 20, 2026 • Age: 11 hours

Current Status

Altitude 910.7 km
Velocity 7.40 km/s
Sub-Earth Point -26.85°S, 75.88°E
Launch Date Feb 2, 2021
Age 5.2 years
Type other

Technical Details

Classification Payload
Mass 6575.00 kg
Dry Mass 6500.00 kg
Total Mass 6575.00 kg
Length 6.30 m
Diameter 2.70 m
Span 6.30 m
Shape Cyl + 2 Pan
Manufacturer TSSKBP/ARSLO
Bus Type Yantar'-Lotos
Phase Status In Orbit
Owner/State VVKOV/RU

Most Searched